Miscellaneous Local Product
Issued by NWS Hastings, NE

Home | Current Version | Previous Version | Text Only | Print | Product List | Glossary On
Versions: 1 2 3 4 5 6 7 8 9 10 11 12 13 14 15 16 17 18 19 20 21 22 23 24 25 26 27 28 29 30 31 32 33 34 35 36 37 38 39 40 41 42 43 44 45 46 47 48 49 50
000
AXUS43 KGID 020002
MISGRI

GID CWA HOURLY WEATHER ROUNDUP
NATIONAL WEATHER SERVICE HASTINGS NE
700 PM CDT FRI AUG 01 2014

NOTE: "FAIR" INDICATES FEW OR NO CLOUDS BELOW 12,000 FEET WITH NO
SIGNIFICANT WEATHER AND/OR OBSTRUCTIONS TO VISIBILITY.

...SOUTH CENTRAL NEBRASKA...

CITY           SKY/WX    TMP DP  RH WIND       PRES   REMARKS
GRAND ISLAND   SUNNY     81  60  48 E9        30.10S
HASTINGS       SUNNY     80  57  45 E7        30.09F
KEARNEY        SUNNY     82  59  44 NE9       30.11R
ORD            SUNNY     82  57  42 E9        30.08S
YORK           MOSUNNY   79  64  61 E6        30.09S
AURORA         SUNNY     80  62  55 E5        30.09S
HOLDREGE       SUNNY     82  58  43 E9        30.10S
HEBRON         SUNNY     82  58  43 N8        30.06S

...NEBRASKA PANHANDLE...

CITY           SKY/WX    TMP DP  RH WIND       PRES   REMARKS
CHADRON        CLOUDY    79  51  37 NE9G22    30.10R
ALLIANCE       MOSUNNY   88  36  15 S8        30.12F
SCOTTSBLUFF    MOSUNNY   89  36  15 E8        30.13F
SIDNEY         MOSUNNY   87  39  18 VRB5      30.17F

...WESTERN AND NORTH CENTRAL NEBRASKA...

CITY           SKY/WX    TMP DP  RH WIND       PRES   REMARKS
VALENTINE      MOSUNNY   92  46  20 E9G20     30.03F
AINSWORTH      SUNNY     84  57  39 E9        30.07S
BROKEN BOW     SUNNY     85  60  42 SE10      30.09S
IMPERIAL       SUNNY     88  46  23 E7        30.11F
NORTH PLATTE   SUNNY     82  53  36 E12       30.09S
MCCOOK         MOSUNNY   85  56  37 SE7       30.10F

...EASTERN NEBRASKA...

CITY           SKY/WX    TMP DP  RH WIND       PRES   REMARKS
NORFOLK        SUNNY     81  57  43 SE8       30.08F
SO SIOUX CITY  MOSUNNY   82  60  47 SE3       30.07S
TEKAMAH        SUNNY     83  62  49 E6        30.06F
ALBION         SUNNY     80  57  45 SE7       30.09F
OMAHA EPPLEY   MOSUNNY   82  60  47 E6        30.06F
OFFUTT AFB     SUNNY     82  64  55 E6        30.06F
LINCOLN        SUNNY     83  58  42 E9        30.07S
NEBRASKA CITY  SUNNY     79  58  48 E5        30.07S
BEATRICE       SUNNY     82  64  54 E9        30.05S
FALLS CITY     SUNNY     82  63  52 E7        30.04F

...NORTHERN KANSAS...

CITY           SKY/WX    TMP DP  RH WIND       PRES   REMARKS
GOODLAND       PTSUNNY   84  46  26 SE8       30.16S
HILL CITY      SUNNY     90  48  23 NE10      30.08S
NORTON         CLEAR     88  46  23 NE8       30.09R
PHILLIPSBURG   SUNNY     88  52  29 NE8       30.07S
SMITH CENTER   SUNNY     84  54  34 NE10      30.08S
HAYS           SUNNY     88  52  29 NE14      30.06F
RUSSELL        SUNNY     88  52  29 NE14G23   30.05S
CONCORDIA      SUNNY     83  59  44 NE12      30.04S
SALINA         SUNNY     89  45  21 N13       30.02S
TOPEKA         SUNNY     86  62  44 E12       30.01S



USA.gov is the U.S. government's official web portal to all federal, state and local government web resources and services.